Year,Month,Day,Hour,Minute,Value (Times are PST for temperature in C)
2016,10,09,00,00,6.80
2016,10,09,00,01,6.80
2016,10,09,00,02,6.80
2016,10,09,00,03,6.80
2016,10,09,00,04,6.80
2016,10,09,00,05,6.80
2016,10,09,00,06,6.80
2016,10,09,00,07,6.80
2016,10,09,00,08,6.80
2016,10,09,00,09,6.80
2016,10,09,00,10,6.80
2016,10,09,00,11,6.70
2016,10,09,00,12,6.70
2016,10,09,00,13,6.70
2016,10,09,00,14,6.70
2016,10,09,00,15,6.70
2016,10,09,00,16,6.70
2016,10,09,00,17,6.70
2016,10,09,00,18,6.70
2016,10,09,00,19,6.70
2016,10,09,00,20,6.70
2016,10,09,00,21,6.70
2016,10,09,00,22,6.70
2016,10,09,00,23,6.70
2016,10,09,00,24,6.70
2016,10,09,00,25,6.70
2016,10,09,00,26,6.70
2016,10,09,00,27,6.70
2016,10,09,00,28,6.70
2016,10,09,00,29,6.70
2016,10,09,00,30,6.70
2016,10,09,00,31,6.60
2016,10,09,00,32,6.60
2016,10,09,00,33,6.60
2016,10,09,00,34,6.60
2016,10,09,00,35,6.60
2016,10,09,00,36,6.60
2016,10,09,00,37,6.60
2016,10,09,00,38,6.60
2016,10,09,00,39,6.60
2016,10,09,00,40,6.60
2016,10,09,00,41,6.60
2016,10,09,00,42,6.60
2016,10,09,00,43,6.60
2016,10,09,00,44,6.60
2016,10,09,00,45,6.60
2016,10,09,00,46,6.50
2016,10,09,00,47,6.50
2016,10,09,00,48,6.50
2016,10,09,00,49,6.50
2016,10,09,00,50,6.50
2016,10,09,00,51,6.50
2016,10,09,00,52,6.50
2016,10,09,00,53,6.50
2016,10,09,00,54,6.50
2016,10,09,00,55,6.50
2016,10,09,00,56,6.50
2016,10,09,00,57,6.40
2016,10,09,00,58,6.40
2016,10,09,00,59,6.40
2016,10,09,01,00,6.40
2016,10,09,01,01,6.40
2016,10,09,01,02,6.40
2016,10,09,01,03,6.40
2016,10,09,01,04,6.40
2016,10,09,01,05,6.40
2016,10,09,01,06,6.40
2016,10,09,01,07,6.40
2016,10,09,01,08,6.30
2016,10,09,01,09,6.30
2016,10,09,01,10,6.30
2016,10,09,01,11,6.30
2016,10,09,01,12,6.30
2016,10,09,01,13,6.30
2016,10,09,01,14,6.30
2016,10,09,01,15,6.30
2016,10,09,01,16,6.30
2016,10,09,01,17,6.30
2016,10,09,01,18,6.20
2016,10,09,01,19,6.20
2016,10,09,01,20,6.20
2016,10,09,01,21,6.20
2016,10,09,01,22,6.20
2016,10,09,01,23,6.20
2016,10,09,01,24,6.20
2016,10,09,01,25,6.20
2016,10,09,01,26,6.20
2016,10,09,01,27,6.20
2016,10,09,01,28,6.20
2016,10,09,01,29,6.20
2016,10,09,01,30,6.20
2016,10,09,01,31,6.20
2016,10,09,01,32,6.20
2016,10,09,01,33,6.20
2016,10,09,01,34,6.20
2016,10,09,01,35,6.20
2016,10,09,01,36,6.20
2016,10,09,01,37,6.20
2016,10,09,01,38,6.10
2016,10,09,01,39,6.10
2016,10,09,01,40,6.10
2016,10,09,01,41,6.10
2016,10,09,01,42,6.10
2016,10,09,01,43,6.10
2016,10,09,01,44,6.10
2016,10,09,01,45,6.10
2016,10,09,01,46,6.10
2016,10,09,01,47,6.10
2016,10,09,01,48,6.10
2016,10,09,01,49,6.10
2016,10,09,01,50,6.10
2016,10,09,01,51,6.10
2016,10,09,01,52,6.10
2016,10,09,01,53,6.10
2016,10,09,01,54,6.10
2016,10,09,01,55,6.10
2016,10,09,01,56,6.10
2016,10,09,01,57,6.10
2016,10,09,01,58,6.10
2016,10,09,01,59,6.10
2016,10,09,02,00,6.00
2016,10,09,02,01,6.10
2016,10,09,02,02,6.00
2016,10,09,02,03,6.00
2016,10,09,02,04,6.00
2016,10,09,02,05,6.00
2016,10,09,02,06,6.00
2016,10,09,02,07,6.00
2016,10,09,02,08,6.00
2016,10,09,02,09,6.00
2016,10,09,02,10,6.00
2016,10,09,02,11,6.10
2016,10,09,02,12,6.10
2016,10,09,02,13,6.10
2016,10,09,02,14,6.10
2016,10,09,02,15,6.00
2016,10,09,02,16,6.00
2016,10,09,02,17,6.00
2016,10,09,02,18,6.00
2016,10,09,02,19,6.00
2016,10,09,02,20,6.00
2016,10,09,02,21,6.10
2016,10,09,02,22,6.10
2016,10,09,02,23,6.10
2016,10,09,02,24,6.10
2016,10,09,02,25,6.10
2016,10,09,02,26,6.10
2016,10,09,02,27,6.10
2016,10,09,02,28,6.10
2016,10,09,02,29,6.10
2016,10,09,02,30,6.10
2016,10,09,02,31,6.10
2016,10,09,02,32,6.10
2016,10,09,02,33,6.10
2016,10,09,02,34,6.10
2016,10,09,02,35,6.10
2016,10,09,02,36,6.10
2016,10,09,02,37,6.10
2016,10,09,02,38,6.10
2016,10,09,02,39,6.10
2016,10,09,02,40,6.00
2016,10,09,02,41,6.00
2016,10,09,02,42,6.00
2016,10,09,02,43,6.00
2016,10,09,02,44,6.00
2016,10,09,02,45,6.00
2016,10,09,02,46,6.00
2016,10,09,02,47,6.00
2016,10,09,02,48,5.90
2016,10,09,02,49,5.90
2016,10,09,02,50,6.00
2016,10,09,02,51,5.90
2016,10,09,02,52,5.90
2016,10,09,02,53,5.90
2016,10,09,02,54,5.90
2016,10,09,02,55,5.90
2016,10,09,02,56,5.90
2016,10,09,02,57,5.90
2016,10,09,02,58,5.90
2016,10,09,02,59,5.90
2016,10,09,03,00,5.90
2016,10,09,03,01,5.90
2016,10,09,03,02,6.00
2016,10,09,03,03,6.00
2016,10,09,03,04,6.00
2016,10,09,03,05,6.00
2016,10,09,03,06,6.00
2016,10,09,03,07,5.90
2016,10,09,03,08,5.90
2016,10,09,03,09,5.90
2016,10,09,03,10,5.90
2016,10,09,03,11,5.90
2016,10,09,03,12,5.90
2016,10,09,03,13,5.90
2016,10,09,03,14,5.90
2016,10,09,03,15,5.90
2016,10,09,03,16,5.90
2016,10,09,03,17,5.90
2016,10,09,03,18,5.80
2016,10,09,03,19,5.80
2016,10,09,03,20,5.80
2016,10,09,03,21,5.80
2016,10,09,03,22,5.80
2016,10,09,03,23,5.80
2016,10,09,03,24,5.90
2016,10,09,03,25,5.80
2016,10,09,03,26,5.80
2016,10,09,03,27,5.80
2016,10,09,03,28,5.80
2016,10,09,03,29,5.80
2016,10,09,03,30,5.80
2016,10,09,03,31,5.80
2016,10,09,03,32,5.80
2016,10,09,03,33,5.80
2016,10,09,03,34,5.80
2016,10,09,03,35,5.80
2016,10,09,03,36,5.80
2016,10,09,03,37,5.80
2016,10,09,03,38,5.80
2016,10,09,03,39,5.80
2016,10,09,03,40,5.80
2016,10,09,03,41,5.80
2016,10,09,03,42,5.80
2016,10,09,03,43,5.80
2016,10,09,03,44,5.80
2016,10,09,03,45,5.80
2016,10,09,03,46,5.80
2016,10,09,03,47,5.80
2016,10,09,03,48,5.80
2016,10,09,03,49,5.80
2016,10,09,03,50,5.80
2016,10,09,03,51,5.80
2016,10,09,03,52,5.80
2016,10,09,03,53,5.80
2016,10,09,03,54,5.80
2016,10,09,03,55,5.80
2016,10,09,03,56,5.80
2016,10,09,03,57,5.80
2016,10,09,03,58,5.80
2016,10,09,03,59,5.80
2016,10,09,04,00,5.80
2016,10,09,04,01,5.80
2016,10,09,04,02,5.80
2016,10,09,04,03,5.80
2016,10,09,04,04,5.80
2016,10,09,04,05,5.80
2016,10,09,04,06,5.80
2016,10,09,04,07,5.80
2016,10,09,04,08,5.80
2016,10,09,04,09,5.80
2016,10,09,04,10,5.80
2016,10,09,04,11,5.80
2016,10,09,04,12,5.80
2016,10,09,04,13,5.70
2016,10,09,04,14,5.80
2016,10,09,04,15,5.80
2016,10,09,04,16,5.70
2016,10,09,04,17,5.70
2016,10,09,04,18,5.70
2016,10,09,04,19,5.70
2016,10,09,04,20,5.70
2016,10,09,04,21,5.70
2016,10,09,04,22,5.70
2016,10,09,04,23,5.70
2016,10,09,04,24,5.70
2016,10,09,04,25,5.60
2016,10,09,04,26,5.60
2016,10,09,04,27,5.50
2016,10,09,04,28,5.50
2016,10,09,04,29,5.50
2016,10,09,04,30,5.50
2016,10,09,04,31,5.50
2016,10,09,04,32,5.40
2016,10,09,04,33,5.40
2016,10,09,04,34,5.40
2016,10,09,04,35,5.40
2016,10,09,04,36,5.40
2016,10,09,04,37,5.40
2016,10,09,04,38,5.40
2016,10,09,04,39,5.40
2016,10,09,04,40,5.40
2016,10,09,04,41,5.40
2016,10,09,04,42,5.40
2016,10,09,04,43,5.40
2016,10,09,04,44,5.40
2016,10,09,04,45,5.30
2016,10,09,04,46,5.30
2016,10,09,04,47,5.30
2016,10,09,04,48,5.30
2016,10,09,04,49,5.30
2016,10,09,04,50,5.30
2016,10,09,04,51,5.40
2016,10,09,04,52,5.40
2016,10,09,04,53,5.40
2016,10,09,04,54,5.40
2016,10,09,04,55,5.40
2016,10,09,04,56,5.40
2016,10,09,04,57,5.40
2016,10,09,04,58,5.40
2016,10,09,04,59,5.40
2016,10,09,05,00,5.40
2016,10,09,05,01,5.40
2016,10,09,05,02,5.40
2016,10,09,05,03,5.30
2016,10,09,05,04,5.30
2016,10,09,05,05,5.30
2016,10,09,05,06,5.30
2016,10,09,05,07,5.20
2016,10,09,05,08,5.20
2016,10,09,05,09,5.20
2016,10,09,05,10,5.10
2016,10,09,05,11,5.10
2016,10,09,05,12,5.10
2016,10,09,05,13,5.20
2016,10,09,05,14,5.20
2016,10,09,05,15,5.20
2016,10,09,05,16,5.20
2016,10,09,05,17,5.20
2016,10,09,05,18,5.20
2016,10,09,05,19,5.20
2016,10,09,05,20,5.20
2016,10,09,05,21,5.20
2016,10,09,05,22,5.20
2016,10,09,05,23,5.20
2016,10,09,05,24,5.20
2016,10,09,05,25,5.20
2016,10,09,05,26,5.20
2016,10,09,05,27,5.20
2016,10,09,05,28,5.20
2016,10,09,05,29,5.20
2016,10,09,05,30,5.20
2016,10,09,05,31,5.20
2016,10,09,05,32,5.20
2016,10,09,05,33,5.20
2016,10,09,05,34,5.20
2016,10,09,05,35,5.20
2016,10,09,05,36,5.20
2016,10,09,05,37,5.20
2016,10,09,05,38,5.20
2016,10,09,05,39,5.20
2016,10,09,05,40,5.20
2016,10,09,05,41,5.20
2016,10,09,05,42,5.20
2016,10,09,05,43,5.20
2016,10,09,05,44,5.20
2016,10,09,05,45,5.20
2016,10,09,05,46,5.20
2016,10,09,05,47,5.20
2016,10,09,05,48,5.10
2016,10,09,05,49,5.10
2016,10,09,05,50,5.10
2016,10,09,05,51,5.10
2016,10,09,05,52,5.00
2016,10,09,05,53,4.90
2016,10,09,05,54,4.90
2016,10,09,05,55,4.90
2016,10,09,05,56,4.80
2016,10,09,05,57,4.80
2016,10,09,05,58,4.80
2016,10,09,05,59,4.80
2016,10,09,06,00,4.80
2016,10,09,06,01,4.80
2016,10,09,06,02,4.80
2016,10,09,06,03,4.80
2016,10,09,06,04,4.80
2016,10,09,06,05,4.80
2016,10,09,06,06,4.80
2016,10,09,06,07,4.90
2016,10,09,06,08,4.90
2016,10,09,06,09,4.90
2016,10,09,06,10,5.00
2016,10,09,06,11,5.00
2016,10,09,06,12,5.00
2016,10,09,06,13,5.00
2016,10,09,06,14,5.10
2016,10,09,06,15,5.10
2016,10,09,06,16,5.10
2016,10,09,06,17,5.10
2016,10,09,06,18,5.10
2016,10,09,06,19,5.10
2016,10,09,06,20,5.10
2016,10,09,06,21,5.20
2016,10,09,06,22,5.20
2016,10,09,06,23,5.20
2016,10,09,06,24,5.20
2016,10,09,06,25,5.20
2016,10,09,06,26,5.20
2016,10,09,06,27,5.20
2016,10,09,06,28,5.20
2016,10,09,06,29,5.20
2016,10,09,06,30,5.20
2016,10,09,06,31,5.20
2016,10,09,06,32,5.20
2016,10,09,06,33,5.10
2016,10,09,06,34,5.10
2016,10,09,06,35,5.10
2016,10,09,06,36,5.10
2016,10,09,06,37,5.10
2016,10,09,06,38,5.10
2016,10,09,06,39,5.10
2016,10,09,06,40,5.00
2016,10,09,06,41,5.00
2016,10,09,06,42,5.00
2016,10,09,06,43,4.90
2016,10,09,06,44,4.90
2016,10,09,06,45,4.90
2016,10,09,06,46,4.90
2016,10,09,06,47,4.80
2016,10,09,06,48,4.80
2016,10,09,06,49,4.80
2016,10,09,06,50,4.80
2016,10,09,06,51,4.80
2016,10,09,06,52,4.80
2016,10,09,06,53,4.80
2016,10,09,06,54,4.80
2016,10,09,06,55,4.80
2016,10,09,06,56,4.80
2016,10,09,06,57,4.80
2016,10,09,06,58,4.80
2016,10,09,06,59,4.80
2016,10,09,07,00,4.80
2016,10,09,07,01,4.80
2016,10,09,07,02,4.80
2016,10,09,07,03,4.90
2016,10,09,07,04,4.90
2016,10,09,07,05,4.90
2016,10,09,07,06,4.90
2016,10,09,07,07,5.00
2016,10,09,07,08,5.00
2016,10,09,07,09,5.00
2016,10,09,07,10,5.10
2016,10,09,07,11,5.10
2016,10,09,07,12,5.10
2016,10,09,07,13,5.10
2016,10,09,07,14,5.10
2016,10,09,07,15,5.10
2016,10,09,07,16,5.10
2016,10,09,07,17,5.10
2016,10,09,07,18,5.20
2016,10,09,07,19,5.20
2016,10,09,07,20,5.20
2016,10,09,07,21,5.20
2016,10,09,07,22,5.20
2016,10,09,07,23,5.20
2016,10,09,07,24,5.10
2016,10,09,07,25,5.10
2016,10,09,07,26,5.10
2016,10,09,07,27,5.10
2016,10,09,07,28,5.10
2016,10,09,07,29,5.00
2016,10,09,07,30,5.00
2016,10,09,07,31,4.90
2016,10,09,07,32,4.90
2016,10,09,07,33,4.90
2016,10,09,07,34,4.90
2016,10,09,07,35,4.80
2016,10,09,07,36,4.80
2016,10,09,07,37,4.80
2016,10,09,07,38,4.80
2016,10,09,07,39,4.80
2016,10,09,07,40,4.80
2016,10,09,07,41,4.80
2016,10,09,07,42,4.80
2016,10,09,07,43,4.80
2016,10,09,07,44,4.80
2016,10,09,07,45,4.80
2016,10,09,07,46,4.80
2016,10,09,07,47,4.80
2016,10,09,07,48,4.80
2016,10,09,07,49,4.80
2016,10,09,07,50,4.80
2016,10,09,07,51,4.80
2016,10,09,07,52,4.80
2016,10,09,07,53,4.80
2016,10,09,07,54,4.80
2016,10,09,07,55,4.80
2016,10,09,07,56,4.80
2016,10,09,07,57,4.80
2016,10,09,07,58,4.80
2016,10,09,07,59,4.80
2016,10,09,08,00,4.80
2016,10,09,08,01,4.80
2016,10,09,08,02,4.80
2016,10,09,08,03,4.80
2016,10,09,08,04,4.80
2016,10,09,08,05,4.80
2016,10,09,08,06,4.80
2016,10,09,08,07,4.90
2016,10,09,08,08,4.90
2016,10,09,08,09,4.90
2016,10,09,08,10,4.90
2016,10,09,08,11,4.90
2016,10,09,08,12,4.90
2016,10,09,08,13,4.90
2016,10,09,08,14,5.00
2016,10,09,08,15,5.00
2016,10,09,08,16,5.00
2016,10,09,08,17,5.00
2016,10,09,08,18,5.00
2016,10,09,08,19,5.10
2016,10,09,08,20,5.10
2016,10,09,08,21,5.10
2016,10,09,08,22,5.10
2016,10,09,08,23,5.10
2016,10,09,08,24,5.20
2016,10,09,08,25,5.20
2016,10,09,08,26,5.20
2016,10,09,08,27,5.20
2016,10,09,08,28,5.20
2016,10,09,08,29,5.20
2016,10,09,08,30,5.20
2016,10,09,08,31,5.30
2016,10,09,08,32,5.30
2016,10,09,08,33,5.30
2016,10,09,08,34,5.30
2016,10,09,08,35,5.40
2016,10,09,08,36,5.40
2016,10,09,08,37,5.40
2016,10,09,08,38,5.40
2016,10,09,08,39,5.40
2016,10,09,08,40,5.50
2016,10,09,08,41,5.50
2016,10,09,08,42,5.60
2016,10,09,08,43,5.60
2016,10,09,08,44,5.60
2016,10,09,08,45,5.60
2016,10,09,08,46,5.60
2016,10,09,08,47,5.70
2016,10,09,08,48,5.70
2016,10,09,08,49,5.70
2016,10,09,08,50,5.70
2016,10,09,08,51,5.70
2016,10,09,08,52,5.70
2016,10,09,08,53,5.80
2016,10,09,08,54,5.80
2016,10,09,08,55,5.80
2016,10,09,08,56,5.90
2016,10,09,08,57,5.90
2016,10,09,08,58,5.90
2016,10,09,08,59,6.00
2016,10,09,09,00,6.00
2016,10,09,09,01,6.00
2016,10,09,09,02,6.10
2016,10,09,09,03,6.10
2016,10,09,09,04,6.20
2016,10,09,09,05,6.20
2016,10,09,09,06,6.20
2016,10,09,09,07,6.30
2016,10,09,09,08,6.30
2016,10,09,09,09,6.30
2016,10,09,09,10,6.40
2016,10,09,09,11,6.40
2016,10,09,09,12,6.40
2016,10,09,09,13,6.40
2016,10,09,09,14,6.50
2016,10,09,09,15,6.50
2016,10,09,09,16,6.50
2016,10,09,09,17,6.60
2016,10,09,09,18,6.60
2016,10,09,09,19,6.60
2016,10,09,09,20,6.70
2016,10,09,09,21,6.70
2016,10,09,09,22,6.70
2016,10,09,09,23,6.80
2016,10,09,09,24,6.80
2016,10,09,09,25,6.80
2016,10,09,09,26,6.90
2016,10,09,09,27,7.00
2016,10,09,09,28,7.00
2016,10,09,09,29,7.10
2016,10,09,09,30,7.10
2016,10,09,09,31,7.10
2016,10,09,09,32,7.20
2016,10,09,09,33,7.20
2016,10,09,09,34,7.20
2016,10,09,09,35,7.30
2016,10,09,09,36,7.30
2016,10,09,09,37,7.40
2016,10,09,09,38,7.40
2016,10,09,09,39,7.50
2016,10,09,09,40,7.50
2016,10,09,09,41,7.60
2016,10,09,09,42,7.60
2016,10,09,09,43,7.70
2016,10,09,09,44,7.70
2016,10,09,09,45,7.70
2016,10,09,09,46,7.80
2016,10,09,09,47,7.80
2016,10,09,09,48,7.90
2016,10,09,09,49,8.00
2016,10,09,09,50,8.00
2016,10,09,09,51,8.10
2016,10,09,09,52,8.10
2016,10,09,09,53,8.10
2016,10,09,09,54,8.20
2016,10,09,09,55,8.20
2016,10,09,09,56,8.20
2016,10,09,09,57,8.20
2016,10,09,09,58,8.20
2016,10,09,09,59,8.30
2016,10,09,10,00,8.30
2016,10,09,10,01,8.30
2016,10,09,10,02,8.30
2016,10,09,10,03,8.40
2016,10,09,10,04,8.40
2016,10,09,10,05,8.40
2016,10,09,10,06,8.50
2016,10,09,10,07,8.50
2016,10,09,10,08,8.50
2016,10,09,10,09,8.50
2016,10,09,10,10,8.60
2016,10,09,10,11,8.60
2016,10,09,10,12,8.60
2016,10,09,10,13,8.70
2016,10,09,10,14,8.70
2016,10,09,10,15,8.70
2016,10,09,10,16,8.70
2016,10,09,10,17,8.70
2016,10,09,10,18,8.80
2016,10,09,10,19,8.80
2016,10,09,10,20,8.90
2016,10,09,10,21,9.00
2016,10,09,10,22,9.10
2016,10,09,10,23,9.20
2016,10,09,10,24,9.20
2016,10,09,10,25,9.30
2016,10,09,10,26,9.40
2016,10,09,10,27,9.40
2016,10,09,10,28,9.50
2016,10,09,10,29,9.60
2016,10,09,10,30,9.60
2016,10,09,10,31,9.70
2016,10,09,10,32,9.70
2016,10,09,10,33,9.70
2016,10,09,10,34,9.80
2016,10,09,10,35,9.80
2016,10,09,10,36,9.80
2016,10,09,10,37,9.90
2016,10,09,10,38,9.90
2016,10,09,10,39,10.00
2016,10,09,10,40,10.10
2016,10,09,10,41,10.20
2016,10,09,10,42,10.20
2016,10,09,10,43,10.20
2016,10,09,10,44,10.20
2016,10,09,10,45,10.20
2016,10,09,10,46,10.20
2016,10,09,10,47,10.20
2016,10,09,10,48,10.20
2016,10,09,10,49,10.20
2016,10,09,10,50,10.20
2016,10,09,10,51,10.30
2016,10,09,10,52,10.30
2016,10,09,10,53,10.30
2016,10,09,10,54,10.30
2016,10,09,10,55,10.30
2016,10,09,10,56,10.30
2016,10,09,10,57,10.30
2016,10,09,10,58,10.30
2016,10,09,10,59,10.20
2016,10,09,11,00,10.20
2016,10,09,11,01,10.20
2016,10,09,11,02,10.20
2016,10,09,11,03,10.20
2016,10,09,11,04,10.20
2016,10,09,11,05,10.10
2016,10,09,11,06,10.20
2016,10,09,11,07,10.20
2016,10,09,11,08,10.20
2016,10,09,11,09,10.20
2016,10,09,11,10,10.20
2016,10,09,11,11,10.30
2016,10,09,11,12,10.30
2016,10,09,11,13,10.40
2016,10,09,11,14,10.40
2016,10,09,11,15,10.50
2016,10,09,11,16,10.60
2016,10,09,11,17,10.70
2016,10,09,11,18,10.70
2016,10,09,11,19,10.80
2016,10,09,11,20,10.90
2016,10,09,11,21,11.00
2016,10,09,11,22,11.10
2016,10,09,11,23,11.20
2016,10,09,11,24,11.20
2016,10,09,11,25,11.20
2016,10,09,11,26,11.20
2016,10,09,11,27,11.20
2016,10,09,11,28,11.20
2016,10,09,11,29,11.10
2016,10,09,11,30,11.20
2016,10,09,11,31,11.20
2016,10,09,11,32,11.20
2016,10,09,11,33,11.20
2016,10,09,11,34,11.20
2016,10,09,11,35,11.30
2016,10,09,11,36,11.30
2016,10,09,11,37,11.30
2016,10,09,11,38,11.30
2016,10,09,11,39,11.30
2016,10,09,11,40,11.30
2016,10,09,11,41,11.30
2016,10,09,11,42,11.30
2016,10,09,11,43,11.30
2016,10,09,11,44,11.30
2016,10,09,11,45,11.30
2016,10,09,11,46,11.20
2016,10,09,11,47,11.20
2016,10,09,11,48,11.20
2016,10,09,11,49,11.10
2016,10,09,11,50,11.10
2016,10,09,11,51,11.10
2016,10,09,11,52,11.10
2016,10,09,11,53,11.10
2016,10,09,11,54,11.10
2016,10,09,11,55,11.10
2016,10,09,11,56,11.10
2016,10,09,11,57,11.10
2016,10,09,11,58,11.10
2016,10,09,11,59,11.10
2016,10,09,12,00,11.10
2016,10,09,12,01,11.00
2016,10,09,12,02,11.00
2016,10,09,12,03,11.00
2016,10,09,12,04,11.00
2016,10,09,12,05,10.90
2016,10,09,12,06,10.90
2016,10,09,12,07,10.90
2016,10,09,12,08,10.80
2016,10,09,12,09,10.80
2016,10,09,12,10,10.80
2016,10,09,12,11,10.80
2016,10,09,12,12,10.90
2016,10,09,12,13,11.00
2016,10,09,12,14,11.00
2016,10,09,12,15,11.10
2016,10,09,12,16,11.20
2016,10,09,12,17,11.30
2016,10,09,12,18,11.30
2016,10,09,12,19,11.40
2016,10,09,12,20,11.50
2016,10,09,12,21,11.50
2016,10,09,12,22,11.50
2016,10,09,12,23,11.50
2016,10,09,12,24,11.50
2016,10,09,12,25,11.50
2016,10,09,12,26,11.50
2016,10,09,12,27,11.50
2016,10,09,12,28,11.40
2016,10,09,12,29,11.40
2016,10,09,12,30,11.40
2016,10,09,12,31,11.40
2016,10,09,12,32,11.40
2016,10,09,12,33,11.50
2016,10,09,12,34,11.50
2016,10,09,12,35,11.50
2016,10,09,12,36,11.60
2016,10,09,12,37,11.60
2016,10,09,12,38,11.60
2016,10,09,12,39,11.60
2016,10,09,12,40,11.60
2016,10,09,12,41,11.60
2016,10,09,12,42,11.60
2016,10,09,12,43,11.60
2016,10,09,12,44,11.50
2016,10,09,12,45,11.50
2016,10,09,12,46,11.50
2016,10,09,12,47,11.50
2016,10,09,12,48,11.50
2016,10,09,12,49,11.50
2016,10,09,12,50,11.50
2016,10,09,12,51,11.50
2016,10,09,12,52,11.50
2016,10,09,12,53,11.50
2016,10,09,12,54,11.50
2016,10,09,12,55,11.50
2016,10,09,12,56,11.50
2016,10,09,12,57,11.50
2016,10,09,12,58,11.50
2016,10,09,12,59,11.50
2016,10,09,13,00,11.50
2016,10,09,13,01,11.50
2016,10,09,13,02,11.50
2016,10,09,13,03,11.50
2016,10,09,13,04,11.50
2016,10,09,13,05,11.50
2016,10,09,13,06,11.40
2016,10,09,13,07,11.40
2016,10,09,13,08,11.40
2016,10,09,13,09,11.30
2016,10,09,13,10,11.30
2016,10,09,13,11,11.30
2016,10,09,13,12,11.30
2016,10,09,13,13,11.20
2016,10,09,13,14,11.20
2016,10,09,13,15,11.20
2016,10,09,13,16,11.20
2016,10,09,13,17,11.20
2016,10,09,13,18,11.20
2016,10,09,13,19,11.20
2016,10,09,13,20,11.20
2016,10,09,13,21,11.20
2016,10,09,13,22,11.20
2016,10,09,13,23,11.20
2016,10,09,13,24,11.20
2016,10,09,13,25,11.30
2016,10,09,13,26,11.30
2016,10,09,13,27,11.30
2016,10,09,13,28,11.30
2016,10,09,13,29,11.30
2016,10,09,13,30,11.30
2016,10,09,13,31,11.20
2016,10,09,13,32,11.20
2016,10,09,13,33,11.20
2016,10,09,13,34,11.20
2016,10,09,13,35,11.20
2016,10,09,13,36,11.20
2016,10,09,13,37,11.20
2016,10,09,13,38,11.10
2016,10,09,13,39,11.10
2016,10,09,13,40,11.10
2016,10,09,13,41,11.10
2016,10,09,13,42,11.10
2016,10,09,13,43,11.10
2016,10,09,13,44,11.10
2016,10,09,13,45,11.10
2016,10,09,13,46,11.10
2016,10,09,13,47,11.10
2016,10,09,13,48,11.10
2016,10,09,13,49,11.10
2016,10,09,13,50,11.10
2016,10,09,13,51,11.10
2016,10,09,13,52,11.10
2016,10,09,13,53,11.10
2016,10,09,13,54,11.10
2016,10,09,13,55,11.10
2016,10,09,13,56,11.10
2016,10,09,13,57,11.10
2016,10,09,13,58,11.10
2016,10,09,13,59,11.20
2016,10,09,14,00,11.20
2016,10,09,14,01,11.20
2016,10,09,14,02,11.20
2016,10,09,14,03,11.20
2016,10,09,14,04,11.30
2016,10,09,14,05,11.30
2016,10,09,14,06,11.30
2016,10,09,14,07,11.30
2016,10,09,14,08,11.30
2016,10,09,14,09,11.30
2016,10,09,14,10,11.30
2016,10,09,14,11,11.30
2016,10,09,14,12,11.30
2016,10,09,14,13,11.30
2016,10,09,14,14,11.30
2016,10,09,14,15,11.30
2016,10,09,14,16,11.40
2016,10,09,14,17,11.40
2016,10,09,14,18,11.40
2016,10,09,14,19,11.40
2016,10,09,14,20,11.40
2016,10,09,14,21,11.50
2016,10,09,14,22,11.50
2016,10,09,14,23,11.50
2016,10,09,14,24,11.60
2016,10,09,14,25,11.60
2016,10,09,14,26,11.60
2016,10,09,14,27,11.60
2016,10,09,14,28,11.60
2016,10,09,14,29,11.60
2016,10,09,14,30,11.60
2016,10,09,14,31,11.60
2016,10,09,14,32,11.70
2016,10,09,14,33,11.70
2016,10,09,14,34,11.70
2016,10,09,14,35,11.70
2016,10,09,14,36,11.80
2016,10,09,14,37,11.80
2016,10,09,14,38,11.80
2016,10,09,14,39,11.80
2016,10,09,14,40,11.80
2016,10,09,14,41,11.80
2016,10,09,14,42,11.80
2016,10,09,14,43,11.80
2016,10,09,14,44,11.80
2016,10,09,14,45,11.90
2016,10,09,14,46,11.90
2016,10,09,14,47,11.90
2016,10,09,14,48,11.90
2016,10,09,14,49,11.90
2016,10,09,14,50,11.90
2016,10,09,14,51,11.90
2016,10,09,14,52,12.00
2016,10,09,14,53,12.00
2016,10,09,14,54,12.00
2016,10,09,14,55,12.10
2016,10,09,14,56,12.10
2016,10,09,14,57,12.10
2016,10,09,14,58,12.10
2016,10,09,14,59,12.10
2016,10,09,15,00,12.10
2016,10,09,15,01,12.20
2016,10,09,15,02,12.20
2016,10,09,15,03,12.20
2016,10,09,15,04,12.20
2016,10,09,15,05,12.20
2016,10,09,15,06,12.30
2016,10,09,15,07,12.40
2016,10,09,15,08,12.40
2016,10,09,15,09,12.50
2016,10,09,15,10,12.50
2016,10,09,15,11,12.60
2016,10,09,15,12,12.60
2016,10,09,15,13,12.70
2016,10,09,15,14,12.70
2016,10,09,15,15,12.80
2016,10,09,15,16,12.80
2016,10,09,15,17,12.80
2016,10,09,15,18,12.80
2016,10,09,15,19,12.80
2016,10,09,15,20,12.80
2016,10,09,15,21,12.80
2016,10,09,15,22,12.80
2016,10,09,15,23,12.80
2016,10,09,15,24,12.90
2016,10,09,15,25,12.90
2016,10,09,15,26,12.90
2016,10,09,15,27,12.90
2016,10,09,15,28,12.90
2016,10,09,15,29,12.90
2016,10,09,15,30,12.90
2016,10,09,15,31,12.90
2016,10,09,15,32,13.00
2016,10,09,15,33,13.00
2016,10,09,15,34,13.10
2016,10,09,15,35,13.10
2016,10,09,15,36,13.20
2016,10,09,15,37,13.20
2016,10,09,15,38,13.30
2016,10,09,15,39,13.30
2016,10,09,15,40,13.30
2016,10,09,15,41,13.30
2016,10,09,15,42,13.30
2016,10,09,15,43,13.30
2016,10,09,15,44,13.20
2016,10,09,15,45,13.20
2016,10,09,15,46,13.20
2016,10,09,15,47,13.20
2016,10,09,15,48,13.20
2016,10,09,15,49,13.20
2016,10,09,15,50,13.20
2016,10,09,15,51,13.20
2016,10,09,15,52,13.20
2016,10,09,15,53,13.30
2016,10,09,15,54,13.30
2016,10,09,15,55,13.30
2016,10,09,15,56,13.40
2016,10,09,15,57,13.40
2016,10,09,15,58,13.40
2016,10,09,15,59,13.40
2016,10,09,16,00,13.40
2016,10,09,16,01,13.40
2016,10,09,16,02,13.40
2016,10,09,16,03,13.40
2016,10,09,16,04,13.40
2016,10,09,16,05,13.40
2016,10,09,16,06,13.30
2016,10,09,16,07,13.30
2016,10,09,16,08,13.30
2016,10,09,16,09,13.30
2016,10,09,16,10,13.30
2016,10,09,16,11,13.30
2016,10,09,16,12,13.20
2016,10,09,16,13,13.20
2016,10,09,16,14,13.20
2016,10,09,16,15,13.20
2016,10,09,16,16,13.20
2016,10,09,16,17,13.10
2016,10,09,16,18,13.10
2016,10,09,16,19,13.10
2016,10,09,16,20,13.10
2016,10,09,16,21,13.10
2016,10,09,16,22,13.10
2016,10,09,16,23,13.10
2016,10,09,16,24,13.10
2016,10,09,16,25,13.10
2016,10,09,16,26,13.20
2016,10,09,16,27,13.10
2016,10,09,16,28,13.10
2016,10,09,16,29,13.10
2016,10,09,16,30,13.10
2016,10,09,16,31,13.10
2016,10,09,16,32,13.10
2016,10,09,16,33,13.00
2016,10,09,16,34,13.00
2016,10,09,16,35,13.00
2016,10,09,16,36,12.90
2016,10,09,16,37,12.90
2016,10,09,16,38,12.90
2016,10,09,16,39,12.90
2016,10,09,16,40,12.90
2016,10,09,16,41,12.90
2016,10,09,16,42,12.90
2016,10,09,16,43,12.90
2016,10,09,16,44,12.90
2016,10,09,16,45,12.80
2016,10,09,16,46,12.80
2016,10,09,16,47,12.80
2016,10,09,16,48,12.80
2016,10,09,16,49,12.80
2016,10,09,16,50,12.80
2016,10,09,16,51,12.80
2016,10,09,16,52,12.80
2016,10,09,16,53,12.80
2016,10,09,16,54,12.80
2016,10,09,16,55,12.70
2016,10,09,16,56,12.70
2016,10,09,16,57,12.70
2016,10,09,16,58,12.70
2016,10,09,16,59,12.60
2016,10,09,17,00,12.60
2016,10,09,17,01,12.60
2016,10,09,17,02,12.60
2016,10,09,17,03,12.60
2016,10,09,17,04,12.60
2016,10,09,17,05,12.60
2016,10,09,17,06,12.60
2016,10,09,17,07,12.60
2016,10,09,17,08,12.60
2016,10,09,17,09,12.50
2016,10,09,17,10,12.50
2016,10,09,17,11,12.50
2016,10,09,17,12,12.50
2016,10,09,17,13,12.50
2016,10,09,17,14,12.40
2016,10,09,17,15,12.40
2016,10,09,17,16,12.40
2016,10,09,17,17,12.40
2016,10,09,17,18,12.40
2016,10,09,17,19,12.40
2016,10,09,17,20,12.40
2016,10,09,17,21,12.30
2016,10,09,17,22,12.30
2016,10,09,17,23,12.20
2016,10,09,17,24,12.20
2016,10,09,17,25,12.10
2016,10,09,17,26,12.00
2016,10,09,17,27,12.00
2016,10,09,17,28,11.90
2016,10,09,17,29,11.80
2016,10,09,17,30,11.80
2016,10,09,17,31,11.70
2016,10,09,17,32,11.60
2016,10,09,17,33,11.60
2016,10,09,17,34,11.50
2016,10,09,17,35,11.40
2016,10,09,17,36,11.30
2016,10,09,17,37,11.20
2016,10,09,17,38,11.10
2016,10,09,17,39,11.10
2016,10,09,17,40,11.00
2016,10,09,17,41,10.90
2016,10,09,17,42,10.80
2016,10,09,17,43,10.70
2016,10,09,17,44,10.70
2016,10,09,17,45,10.60
2016,10,09,17,46,10.50
2016,10,09,17,47,10.40